Orbital Elements at Epoch 2459200.5 (2020-Dec-17.0) TDB
Reference: JPL 19 (heliocentric ecliptic J2000)
Element | Value | Uncertainty (1-sigma) | Units |
e | .2351458666475712 | 4.5183e-08 | |
a | 2.57216030730419 | 1.2948e-08 | au |
q | 1.967327442686663 | 1.1916e-07 | au |
i | 4.282524369043424 | 5.4235e-06 | deg |
node | 274.5460761082844 | 5.3222e-05 | deg |
peri | 37.94438216992196 | 5.4266e-05 | deg |
M | 181.146686513091 | 1.2967e-05 | deg |
tp | 2459949.083007531664 (2023-Jan-04.58300753) | 5.8377e-05 | TDB |
period | 1506.76483123207 4.13 | 1.1377e-05 3.115e-08 | d yr |
n | .2389224864676664 | 1.8041e-09 | deg/d |
Q | 3.176993171921717 | 1.5993e-08 | au |
|
| | Orbit Determination Parameters
Additional Information
|